Liberia, Costa Rica

5:30 AM CST on June 27, 2017 (GMT -0600)
Liberia

Weather History for 78774 - November, 2012

Change the Weather History Date:

Friday, November 16, 2012

  Actual Average Record
Temperature  
Mean Temperature 77 °F -  
Max Temperature 92 °F 86 °F - ()
Min Temperature 62 °F 72 °F - ()
Cooling Degree Days 12    
Growing Degree Days 27 (Base 50)    
Moisture  
Dew Point 66 °F    
Average Humidity 60    
Maximum Humidity 94    
Minimum Humidity 31    
Precipitation  
Precipitation 0.00 in - - ()
Sea Level Pressure  
Sea Level Pressure 29.88 in    
Wind  
Wind Speed 4 mph ()    
Max Wind Speed 10 mph    
Max Gust Speed -    
Visibility 9.1 miles    
Events      
T = Trace of Precipitation, MM = Missing Value Source: Averaged Metar Reports

Daily Weather History Graph

Daily Weather History Graph

Search for Another Location

Airport or City:

Trip Planner

Search our weather history database for the weather conditions in past years. The results will help you decide how hot, cold, wet, or windy it might be!

Date:

Astronomy

Nov. 16, 2012 Rise Set
Actual Time 5:37 AM CST 5:15 PM CST
Civil Twilight 5:15 AM CST 5:37 PM CST
Nautical Twilight 4:49 AM CST 6:03 PM CST
Astronomical Twilight 4:24 AM CST 6:28 PM CST
Moon 8:23 AM CST (11/16) 8:19 PM CST (11/16)
Length of Visible Light 12h 22m
Length of Day
11h 37m
Waxing Crescent, 12% of the Moon is Illuminated
Nov 16
Waxing Crescent
Nov 20
First Quarter
Nov 28
Full
Dec 6
Last Quarter
Dec 13
New

Hourly Weather History & Observations

Time (CST) Temp. Heat Index Dew Point Humidity Pressure Visibility Wind Dir Wind Speed Gust Speed Precip Events Conditions
6:00 AM 63 °F - 62 °F 93% 29.90 in 12 mi East 3.5 mph - -   Clear
6:00 AM 62.6 °F - 60.8 °F 94% 29.88 in - East 3.5 mph - N/A   Clear
7:00 AM 69.8 °F - 66.2 °F 88% 29.90 in - ENE 3.5 mph - N/A   Clear
8:00 AM 78.8 °F - 68.0 °F 69% 29.92 in - Calm Calm - N/A   Clear
9:00 AM 79 °F - 68 °F 62% 29.94 in 12 mi West 4.6 mph - -   Clear
9:00 AM 78.8 °F - 68.0 °F 69% 29.93 in - West 4.6 mph - N/A   Clear
10:00 AM 84.2 °F 87.3 °F 68.0 °F 58% 29.92 in - West 10.4 mph - N/A   Clear
11:00 AM 86.0 °F 88.2 °F 66.2 °F 51% 29.90 in - West 5.8 mph - N/A   Clear
12:00 PM 89 °F - 65 °F 36% 29.89 in 12 mi WNW 5.8 mph - -  
12:00 PM 89.6 °F 92.2 °F 66.2 °F 46% 29.87 in - WNW 5.8 mph - N/A   Clear
1:00 PM 89.6 °F 90.1 °F 62.6 °F 40% 29.86 in 6.2 mi WNW 6.9 mph - N/A   Partly Cloudy
2:00 PM 89.6 °F 90.1 °F 62.6 °F 40% 29.83 in 6.2 mi SW 6.9 mph - N/A   Partly Cloudy
3:00 PM 90 °F - 63 °F 31% 29.83 in 12 mi South 3.5 mph - -   Scattered Clouds
3:00 PM 89.6 °F 90.1 °F 62.6 °F 40% 29.82 in 6.2 mi South 3.5 mph - N/A   Partly Cloudy
4:00 PM 87.8 °F 91.4 °F 68.0 °F 52% 29.82 in 6.2 mi WSW 4.6 mph - N/A   Partly Cloudy
5:00 PM 82.4 °F 85.4 °F 68.0 °F 62% 29.83 in 6.2 mi NNW 4.6 mph - N/A   Partly Cloudy
6:00 PM 80 °F - 67 °F 57% 29.86 in 12 mi Calm Calm - -  
6:00 PM 80.6 °F 83.2 °F 68.0 °F 65% 29.85 in - Calm Calm - N/A   Clear
7:00 PM 77.0 °F - 68.0 °F 74% 29.87 in - South 4.6 mph - N/A   Clear
8:00 PM 75.2 °F - 68.0 °F 78% 29.88 in - South 4.6 mph - N/A   Clear